Wind_Speed
18 18 17 16 16 16 18 19 19 20 21 21 21 22 23 23 23 23 23 23 22 22 22 23 23 23 23 23 23 23 23 23 23 23 23 23 24 24 24 24 23 23 24
18 19 18 18 18 18 19 20 20 21 22 23 24 24 24 25 25 26 25 25 24 24 24 24 25 25 25 25 25 26 26 26 26 26 25 25 25 25 25 25 25 25 26
20 20 20 21 21 20 21 21 22 23 24 25 26 26 27 27 28 28 28 28 28 27 27 27 27 27 27 27 27 27 28 28 28 27 27 27 26 26 26 26 27 26 27
23 24 23 24 24 24 24 24 25 25 26 27 28 28 29 30 30 30 30 30 30 30 29 29 29 29 29 29 29 29 29 28 28 28 28 28 27 27 27 27 27 28 29
25 25 25 25 26 26 26 27 27 28 28 29 29 30 31 32 32 32 32 32 32 32 31 31 31 31 30 30 30 30 30 30 29 30 30 30 29 28 28 28 28 29 30
26 27 28 28 28 29 29 29 30 31 31 32 32 32 32 33 33 33 33 33 34 33 33 33 32 32 31 31 31 31 31 31 31 31 31 31 30 30 30 30 30 30 31
28 29 30 30 31 31 32 32 32 33 34 35 35 35 34 35 35 35 35 35 35 35 35 35 35 34 34 33 32 32 32 31 31 31 30 30 30 31 32 31 31 32 32
31 32 32 33 33 34 34 34 35 35 36 36 37 37 37 36 36 36 36 36 35 36 37 37 37 36 35 34 33 33 33 33 32 32 31 32 32 32 33 33 33 33 33
33 34 34 35 35 35 35 36 36 36 37 37 37 37 37 37 37 37 37 38 39 38 38 38 38 37 37 35 34 34 34 34 34 34 33 34 34 34 34 34 34 34 34
34 35 36 36 36 35 36 37 37 37 37 38 38 38 38 37 37 38 38 39 40 39 39 38 38 37 37 36 36 36 36 36 36 35 35 35 35 35 35 35 35 35 35
36 37 37 36 36 36 37 37 37 37 37 37 38 38 38 38 38 38 39 40 39 39 38 38 38 39 39 39 38 38 38 38 38 38 37 37 37 36 36 35 34 35 35
37 37 37 37 37 38 37 38 38 39 39 38 38 38 38 39 39 40 40 40 40 39 39 39 39 39 39 40 40 40 40 40 40 40 39 39 39 38 37 36 36 35 35
37 37 37 37 38 39 39 38 39 40 39 39 39 39 38 39 40 40 40 40 40 40 40 40 40 39 40 40 40 40 41 42 41 41 40 40 39 39 37 37 36 36 35
37 37 38 39 39 39 39 39 39 39 39 39 39 38 38 39 39 39 39 38 39 40 40 40 40 40 40 40 40 40 40 40 40 40 40 40 40 39 38 37 36 35 35
38 38 38 38 37 38 38 38 39 39 39 39 39 39 39 39 39 38 38 38 38 39 39 40 40 41 40 40 39 39 39 38 38 38 38 38 39 38 38 37 36 36 34
39 39 38 38 39 39 39 38 39 39 39 39 39 39 38 38 38 38 38 38 38 38 39 39 40 40 40 39 39 38 37 36 36 36 36 37 37 37 36 36 36 35 34
38 38 38 38 39 39 39 39 39 39 39 39 38 38 38 38 37 36 36 37 37 37 37 38 38 37 37 38 37 35 35 35 35 35 35 35 35 35 35 35 35 34 33
38 38 38 38 38 39 39 39 39 40 39 39 38 38 38 37 36 35 36 36 36 36 36 35 35 35 36 36 35 34 34 34 33 34 34 34 34 34 34 33 33 33 33
37 37 37 38 39 39 39 40 40 39 39 38 38 37 36 35 35 36 36 35 34 34 34 34 34 34 34 35 34 34 33 33 33 33 32 32 32 32 32 32 32 33 33
36 36 37 38 39 39 39 39 38 37 37 37 37 36 36 35 35 35 35 33 32 32 32 32 33 32 32 33 32 32 32 33 33 33 32 32 31 31 31 32 32 32 32
35 36 37 37 37 37 37 37 36 35 35 34 34 34 34 34 33 33 32 32 31 31 31 31 32 31 31 30 31 32 32 33 32 33 33 32 32 32 31 31 31 32 32
35 36 36 36 36 36 36 35 35 35 34 34 33 33 33 33 32 32 32 31 30 30 30 30 30 30 30 31 31 31 31 31 32 31 32 32 32 31 31 31 31 32 32
35 35 35 35 35 35 35 35 34 34 33 32 32 31 31 31 31 31 30 30 29 29 29 29 29 30 30 30 30 30 31 31 31 31 31 32 32 31 31 31 31 32 31
34 34 34 34 34 34 34 33 33 32 32 31 31 31 30 30 29 29 29 29 28 29 29 29 29 29 29 29 30 30 30 30 30 30 30 30 31 31 32 32 32 32 31
32 32 32 32 32 32 32 32 32 31 30 30 30 30 29 29 29 29 28 28 29 28 28 28 29 29 28 29 29 29 29 30 30 30 30 30 31 32 32 32 32 31 31
31 31 31 31 30 30 30 30 30 30 29 29 28 29 29 29 28 28 28 28 28 28 28 28 28 28 28 28 29 29 29 29 29 30 30 30 30 30 30 31 31 32 32
Wind_Direction
288 285 285 285 284 286 286 286 285 284 283 284 285 285 286 285 285 286 288 289 287 285 285 285 286 285 286 287 287 285 285 285 285 286 286 282 281 281 281 279 279 278 278
285 284 283 284 284 285 286 286 287 286 284 284 284 284 284 284 283 284 285 285 285 285 285 286 286 285 285 286 286 286 285 283 283 285 286 284 282 282 282 280 278 278 278
283 283 284 284 284 285 286 287 289 287 285 284 284 283 283 282 282 282 282 282 283 283 284 284 285 284 284 284 285 284 284 284 283 283 283 284 282 283 284 282 282 280 280
283 283 283 286 287 287 288 290 290 289 286 285 284 283 282 281 281 281 280 281 281 282 282 283 283 283 283 283 282 283 283 282 282 281 281 281 281 281 281 282 282 281 281
283 283 283 287 288 287 290 292 291 290 288 287 286 285 283 282 281 280 279 279 280 280 280 282 281 281 282 282 282 282 281 282 281 281 281 281 282 281 280 280 279 279 279
282 283 284 286 286 287 288 289 290 290 289 287 285 285 285 283 281 280 279 278 278 279 279 280 280 280 281 281 281 280 279 280 280 279 279 279 280 280 279 278 278 278 279
282 284 285 285 286 286 287 288 288 289 288 288 287 288 288 287 284 282 281 279 278 277 277 278 278 279 279 279 279 279 278 277 278 278 278 278 279 278 279 279 278 278 278
281 282 283 285 285 286 287 287 287 288 289 288 288 288 288 286 284 284 281 279 279 278 277 278 278 278 278 277 277 277 278 277 277 277 277 277 278 278 279 279 278 277 278
279 281 282 284 284 285 285 286 287 287 288 288 289 289 288 286 283 282 281 279 278 278 277 277 278 278 276 275 276 278 278 278 278 277 276 277 277 277 278 278 278 277 277
280 281 282 283 283 284 285 286 287 288 288 289 288 288 287 286 284 282 280 280 279 278 277 276 276 277 275 275 276 277 277 278 278 277 276 274 275 277 278 277 277 277 277
279 280 280 281 282 283 284 286 287 289 289 289 289 287 287 286 284 282 282 283 280 279 278 278 278 279 278 277 276 276 275 275 276 275 274 275 276 276 276 276 277 277 278
279 280 280 281 283 284 285 285 286 288 288 288 288 287 286 285 283 282 281 280 279 278 278 279 280 280 278 277 276 275 274 273 273 274 274 274 275 275 275 276 277 277 277
279 279 280 281 283 284 284 285 286 287 286 287 287 287 286 284 283 282 281 281 280 280 279 279 279 279 278 277 276 276 274 272 272 271 272 273 273 274 273 274 274 275 276
280 281 281 281 283 284 284 284 285 286 286 287 287 287 287 286 285 284 282 281 281 280 279 279 279 279 278 278 276 276 274 272 271 271 270 270 271 272 272 272 274 274 275
281 282 283 284 285 286 287 288 288 288 289 289 288 288 288 287 285 283 283 282 281 281 280 279 279 278 277 277 275 274 273 272 271 270 270 269 270 270 271 272 272 273 273
283 283 284 286 287 287 289 290 290 290 290 289 288 288 288 286 285 283 283 282 282 282 282 281 281 279 277 275 274 273 272 271 270 270 270 270 271 271 271 271 271 272 273
283 283 284 286 286 287 288 290 291 291 290 288 288 288 289 288 286 285 284 283 283 283 284 283 282 279 277 275 274 273 272 271 270 270 271 271 271 271 270 270 270 270 271
283 283 285 286 286 287 287 288 290 291 290 288 288 288 288 286 286 286 286 285 284 283 284 283 282 279 277 275 273 271 270 269 269 270 270 270 269 269 269 267 267 268 268
284 285 285 286 287 287 288 289 290 291 290 289 288 288 288 286 286 288 288 286 284 283 283 282 281 279 276 274 272 270 268 267 268 268 269 269 269 269 268 266 266 266 267
285 286 287 288 289 289 290 291 292 291 291 290 289 288 288 288 288 289 288 285 284 283 282 281 279 279 276 272 270 268 267 266 267 268 268 267 267 268 268 266 266 266 265
286 286 287 289 290 290 290 291 291 291 291 291 290 289 288 288 289 288 287 285 284 283 282 282 279 278 277 274 271 269 269 268 268 268 268 266 265 265 266 267 267 267 266
287 288 289 290 290 290 290 291 291 291 291 290 290 289 288 288 288 287 287 287 285 284 283 281 278 278 276 274 273 273 272 271 270 268 266 266 266 266 266 265 265 267 267
288 289 290 291 292 292 291 291 291 290 290 289 290 289 288 288 288 287 287 287 287 284 283 281 278 278 277 275 274 274 273 271 270 269 268 268 267 266 266 266 265 264 267
290 290 290 290 291 292 292 292 292 291 290 289 289 288 287 288 289 289 288 287 286 285 283 282 281 280 278 276 275 274 273 271 269 268 268 268 267 267 266 266 266 265 266
293 292 291 291 292 293 294 293 293 293 292 289 288 287 286 286 288 288 288 287 286 286 285 283 282 281 279 277 276 274 272 271 269 269 269 269 269 269 268 266 266 264 265
294 293 292 292 293 294 295 294 294 294 292 291 289 288 287 287 286 287 288 288 287 286 286 286 284 282 281 280 279 277 275 272 271 270 269 269 268 268 267 266 265 265 265
Height
5899 5898 5897 5896 5895 5893 5892 5891 5890 5889 5888 5887 5886 5885 5884 5882 5881 5880 5878 5877 5876 5874 5873 5872 5871 5869 5868 5867 5866 5865 5863 5862 5861 5859 5858 5857 5856 5855 5854 5853 5852 5851 5850
5895 5894 5893 5891 5890 5889 5888 5886 5884 5883 5882 5881 5880 5879 5878 5876 5875 5874 5872 5871 5870 5868 5867 5866 5865 5864 5862 5861 5859 5858 5857 5855 5854 5853 5852 5850 5849 5848 5847 5846 5845 5844 5844
5890 5889 5888 5886 5885 5884 5883 5881 5879 5878 5876 5875 5874 5872 5871 5869 5868 5867 5865 5864 5863 5862 5860 5859 5858 5857 5856 5854 5853 5851 5850 5848 5847 5846 5845 5844 5842 5841 5840 5839 5838 5837 5836
5884 5883 5882 5880 5879 5877 5876 5875 5874 5872 5870 5868 5867 5865 5863 5862 5860 5859 5858 5857 5856 5855 5853 5852 5851 5849 5848 5847 5845 5844 5842 5841 5839 5838 5837 5836 5835 5834 5833 5831 5830 5830 5829
5878 5877 5875 5874 5873 5871 5870 5868 5867 5865 5863 5861 5859 5857 5855 5854 5852 5851 5850 5849 5848 5847 5845 5844 5843 5841 5840 5839 5837 5836 5834 5833 5832 5830 5829 5828 5827 5826 5825 5824 5823 5821 5820
5872 5870 5869 5867 5866 5864 5863 5861 5859 5857 5855 5853 5851 5849 5847 5845 5844 5843 5841 5840 5839 5838 5837 5835 5834 5833 5831 5830 5828 5827 5826 5825 5823 5822 5821 5820 5819 5818 5817 5816 5815 5814 5813
5865 5863 5861 5860 5858 5856 5854 5852 5850 5848 5846 5844 5843 5841 5839 5837 5835 5834 5832 5831 5829 5828 5827 5826 5825 5824 5822 5821 5820 5818 5817 5815 5814 5813 5812 5811 5810 5809 5808 5807 5806 5805 5804
5857 5855 5853 5852 5850 5848 5846 5844 5842 5839 5837 5835 5833 5831 5829 5827 5826 5824 5822 5821 5820 5819 5817 5816 5815 5813 5812 5811 5810 5809 5808 5807 5805 5804 5803 5803 5802 5800 5799 5798 5797 5797 5796
5848 5847 5845 5843 5841 5839 5837 5834 5832 5830 5827 5825 5823 5821 5819 5817 5816 5814 5812 5810 5809 5808 5807 5805 5804 5803 5802 5801 5800 5799 5798 5797 5796 5795 5794 5793 5792 5790 5789 5788 5788 5787 5786
5839 5837 5835 5833 5830 5828 5826 5824 5822 5819 5817 5814 5812 5810 5808 5806 5805 5803 5801 5799 5799 5797 5796 5795 5793 5793 5792 5790 5790 5789 5788 5787 5786 5784 5783 5782 5781 5780 5779 5778 5778 5777 5776
5829 5827 5824 5823 5820 5818 5816 5814 5811 5809 5806 5804 5801 5799 5797 5795 5793 5792 5789 5788 5787 5785 5784 5783 5782 5781 5780 5779 5779 5778 5777 5776 5775 5774 5773 5772 5771 5770 5769 5768 5767 5766 5766
5818 5816 5814 5812 5810 5807 5805 5803 5800 5798 5795 5793 5791 5788 5786 5784 5782 5780 5778 5776 5775 5774 5773 5771 5770 5769 5768 5767 5767 5766 5765 5764 5763 5762 5762 5761 5760 5759 5758 5757 5757 5756 5755
5808 5805 5803 5801 5799 5796 5794 5792 5789 5786 5784 5782 5779 5777 5774 5772 5770 5768 5766 5764 5762 5761 5761 5760 5758 5757 5756 5755 5754 5753 5752 5752 5751 5751 5750 5749 5748 5747 5747 5747 5746 5745 5745
5797 5795 5793 5790 5788 5785 5783 5781 5778 5775 5773 5770 5768 5765 5763 5760 5758 5756 5753 5752 5750 5748 5748 5747 5745 5744 5743 5742 5741 5740 5739 5739 5738 5738 5738 5737 5736 5736 5736 5735 5735 5734 5734
5786 5784 5781 5778 5776 5774 5772 5769 5767 5764 5761 5759 5756 5754 5751 5749 5746 5744 5741 5740 5738 5736 5735 5734 5733 5731 5730 5729 5729 5728 5727 5726 5726 5726 5725 5725 5725 5724 5724 5724 5724 5724 5723
5774 5772 5769 5767 5765 5762 5760 5757 5754 5752 5749 5747 5744 5742 5739 5737 5734 5732 5730 5728 5726 5724 5722 5721 5719 5718 5717 5716 5715 5715 5714 5714 5714 5714 5713 5713 5713 5713 5713 5713 5713 5713 5713
5762 5760 5758 5756 5754 5751 5749 5746 5743 5740 5737 5735 5732 5730 5727 5725 5722 5720 5718 5716 5714 5712 5710 5708 5707 5705 5704 5703 5702 5702 5702 5702 5702 5702 5702 5702 5702 5701 5701 5702 5702 5702 5703
5751 5748 5746 5744 5742 5740 5737 5734 5731 5728 5726 5723 5720 5718 5716 5713 5711 5709 5706 5704 5702 5700 5698 5696 5695 5694 5692 5691 5691 5691 5691 5691 5691 5691 5690 5690 5690 5690 5690 5691 5691 5692 5692
5739 5737 5735 5733 5730 5728 5725 5722 5720 5717 5714 5711 5709 5706 5704 5702 5700 5698 5695 5693 5691 5689 5687 5685 5684 5682 5681 5680 5679 5679 5679 5680 5680 5680 5680 5679 5679 5680 5680 5680 5681 5682 5682
5728 5726 5723 5721 5718 5716 5713 5711 5708 5706 5703 5700 5698 5695 5693 5691 5689 5687 5684 5682 5680 5678 5677 5675 5673 5671 5670 5669 5668 5668 5668 5669 5669 5669 5669 5669 5669 5669 5669 5670 5670 5671 5672
5717 5715 5712 5710 5707 5705 5702 5699 5697 5695 5692 5689 5687 5685 5682 5680 5678 5676 5674 5672 5669 5668 5666 5665 5663 5661 5660 5659 5658 5658 5658 5658 5658 5658 5658 5658 5659 5659 5659 5659 5660 5661 5661
5706 5703 5701 5699 5696 5693 5691 5688 5686 5684 5681 5679 5677 5674 5672 5670 5668 5666 5664 5661 5659 5657 5656 5654 5652 5651 5650 5649 5648 5648 5647 5647 5647 5647 5647 5647 5647 5648 5648 5649 5650 5650 5649
5695 5692 5690 5687 5685 5682 5680 5678 5675 5673 5671 5668 5666 5664 5661 5659 5657 5655 5653 5651 5649 5647 5645 5644 5642 5641 5640 5639 5638 5637 5637 5636 5636 5636 5636 5636 5637 5637 5638 5638 5639 5639 5639
5684 5682 5679 5677 5674 5671 5669 5667 5664 5662 5660 5658 5656 5653 5651 5649 5647 5645 5643 5641 5639 5637 5635 5633 5632 5631 5629 5628 5627 5626 5625 5625 5625 5625 5625 5625 5626 5626 5627 5627 5628 5629 5629
5674 5671 5668 5666 5663 5661 5659 5656 5654 5652 5649 5647 5645 5643 5641 5639 5637 5635 5633 5631 5629 5627 5625 5623 5622 5620 5619 5617 5616 5615 5614 5614 5613 5613 5614 5614 5614 5614 5615 5615 5616 5617 5618
5664 5661 5658 5656 5654 5651 5649 5647 5644 5642 5639 5637 5635 5633 5631 5629 5627 5626 5624 5621 5619 5617 5615 5613 5612 5610 5609 5607 5606 5605 5604 5603 5602 5602 5602 5602 5602 5602 5603 5603 5604 5605 5606